Regional Weather Roundup
Issued by NWS Little Rock, AR

Home | Current Version | Previous Version | Text Only | Print | Product List | Glossary Off
Versions: 1 2 3 4 5 6 7 8 9 10 11 12 13 14 15 16 17 18 19 20 21 22 23 24 25 26 27 28 29 30 31 32 33 34 35 36 37 38 39 40 41 42 43 44 45 46 47 48 49 50

000
ASUS44 KLZK 260105
RWRLZK

WEATHER ROUNDUP FOR ARKANSAS
NATIONAL WEATHER SERVICE LITTLE ROCK AR
700 PM CST SUN JAN 25 2015

NOTE: "FAIR" INDICATES FEW OR NO CLOUDS BELOW 12,000 FEET WITH NO
SIGNIFICANT WEATHER AND/OR OBSTRUCTIONS TO VISIBILITY.

ARZ001-003-010-029-260200-
NORTHWEST ARKANSAS

CITY           SKY/WX    TMP DP  RH WIND       PRES   REMARKS
FAYETTEVILLE   CLOUDY    41  32  70 NW18      30.03R
FORT SMITH     CLOUDY    50  31  48 NW21G28   30.03R
HARRISON       CLOUDY    39  34  82 NW18G29   29.95R
BENTONVILLE    CLOUDY    41  30  65 N15G21    30.03R
ROGERS         CLOUDY    40  32  73 NW15G26   30.02R
SILOAM SPGS    CLOUDY    43  28  56 N21G26    30.05R
HIGHFILL       LGT RAIN  42  32  67 NW16G30   30.02R
SPRINGDALE     CLOUDY    41  32  70 NW20G30   30.03R
$$

ARZ004-005-016-260200-
NORTH CENTRAL ARKANSAS

CITY           SKY/WX    TMP DP  RH WIND       PRES   REMARKS
BATESVILLE     CLOUDY    45  32  61 W9G18     29.91R
FLIPPIN        CLOUDY    41  32  70 NW17G26   29.94R
MTN HOME       CLOUDY    40  34  79 NW14G22   29.92R
$$

ARZ040-041-260200-
WEST CENTRAL ARKANSAS

CITY           SKY/WX    TMP DP  RH WIND       PRES   REMARKS
MENA           CLOUDY    52  34  50 NW10      30.00R
MOUNT IDA      CLOUDY    51  31  46 NW12G26   29.95R
$$

ARZ009-017-025-026-028-260200-
NORTHEAST ARKANSAS

CITY           SKY/WX    TMP DP  RH WIND       PRES   REMARKS
JONESBORO      CLOUDY    44  35  70 NW17G24   29.85R
NEWPORT        CLOUDY    44  35  70 NW17      29.90R
WALNUT RIDGE   CLOUDY    43  34  70 NW21      29.85R
BLYTHEVILLE    CLOUDY    45  37  73 NW20G29   29.82R
$$

ARZ022-023-033-042-044-260200-
CENTRAL ARKANSAS

CITY           SKY/WX    TMP DP  RH WIND       PRES   REMARKS
LITTLE ROCK    CLOUDY    50  31  48 NW10G23   29.95R
N LITTLE ROCK  CLOUDY    47  35  62 NW9G28    29.95R
JACKSONVILLE   CLOUDY    48  33  55 W12G20    29.94R
SEARCY         CLOUDY    46  33  60 NW10G23   29.94R
HOT SPRINGS    CLOUDY    51  32  48 NW7G20    29.96R
RUSSELLVILLE   CLOUDY    48  32  53 NW15G30   29.96R
CLINTON        CLOUDY    45  34  65 NW9G23    29.96R
$$

ARZ036-260200-
EAST ARKANSAS

CITY           SKY/WX    TMP DP  RH WIND       PRES   REMARKS
WEST MEMPHIS   CLOUDY    45  38  76 NW12G25   29.86R
$$

ARZ050-053-066-070-073-260200-
SOUTHWEST ARKANSAS

CITY           SKY/WX    TMP DP  RH WIND       PRES   REMARKS
ARKADELPHIA    CLOUDY    54  34  46 NW9       29.98R
CAMDEN         CLOUDY    55  28  35 MISG      29.97R
TEXARKANA      CLEAR     53  31  42 NW16G25   30.01R
EL DORADO      MOCLDY    55  32  41 NW13G20   29.97R
DE QUEEN       LGT RAIN  53  31  42 NW14      30.01R
$$

ARZ056-057-069-260200-
SOUTHEAST ARKANSAS

CITY           SKY/WX    TMP DP  RH WIND       PRES   REMARKS
PINE BLUFF     CLOUDY    51  32  48 NW23G35   29.94R
STUTTGART      CLOUDY    48  34  57 NW22G28   29.92R
MONTICELLO     CLOUDY    55  32  41 NW13G28   29.92R

$$





USA.gov is the U.S. government's official web portal to all federal, state and local government web resources and services.